Location: Corralito
(10.5000°N, 67.1333°W)
Time: 13:18:32
(UTC+00:00)

Cosmos 1025 Rocket - Pass Details

Date: 18 April 2024
Orbit: 591 x 613 km, 82.5° (Epoch: 24 May)

Event Time Altitude Azimuth Distance (km) Brightness Sun altitude
Rises 23:38:53 0° 4° (N) 2,868 6.6 -15.0°
Reaches altitude 10° 23:41:09 10° 10° (N) 1,965 5.7 -15.6°
Maximum altitude 23:45:22 49° 85° (E) 790 3.2 -16.6°
Enters shadow 23:47:59 21° 152° (SSE) 1,366 4.4 -17.2°
